SCP
0 0 0 0 0 0 0 0 0 0 0 0 0 0 0 0 0 0 0 0 0 0 0 0 0 0 0 0 0 1 1 1 1 1 1 1 1 1 1 1 1 0 0 0
0 0 0 0 0 0 0 0 0 0 0 0 0 0 0 0 0 0 0 0 0 0 0 0 0 0 0 0 0 0 1 1 1 1 1 1 1 1 1 1 1 0 0 0
0 0 0 0 0 0 0 0 0 0 0 0 0 0 0 0 0 0 0 0 0 0 0 0 0 0 0 0 0 0 0 1 1 1 1 1 1 1 1 1 1 1 0 0
0 0 0 0 0 0 0 0 0 0 0 0 0 0 0 0 0 0 0 0 0 0 0 0 0 0 0 0 0 0 0 0 1 1 1 1 1 1 1 1 1 0 0 0
0 0 0 0 0 0 0 0 0 0 0 0 0 0 0 0 0 0 0 0 0 0 0 0 0 0 0 0 0 0 0 0 0 0 1 1 1 1 1 1 1 0 0 0
0 0 0 0 0 0 0 0 0 0 0 0 0 0 0 0 0 0 0 0 0 0 0 0 0 0 0 0 0 0 0 0 0 0 0 0 0 0 1 1 1 0 0 0
0 0 0 0 0 0 0 0 0 0 0 0 0 0 0 0 0 0 0 0 0 0 0 0 0 0 0 0 0 0 0 0 0 0 0 0 0 0 0 0 1 0 0 0
0 0 0 0 0 0 0 0 0 0 0 0 0 0 0 0 0 0 0 0 0 0 0 0 0 0 0 0 0 0 0 0 0 0 0 0 0 0 0 0 0 1 0 0
0 0 0 0 0 0 0 0 0 0 0 0 0 0 0 0 0 0 0 0 0 0 0 0 0 0 0 0 0 0 0 0 0 0 0 0 0 0 0 0 0 1 0 0
0 0 0 0 0 0 0 0 0 0 0 0 0 0 0 0 0 0 0 0 0 0 0 0 0 0 0 0 0 0 0 0 0 0 0 0 0 0 0 0 0 1 0 0
0 0 0 0 0 0 0 0 0 0 0 0 0 0 0 0 0 0 0 0 0 0 0 0 0 0 0 0 0 0 0 0 0 0 0 0 0 0 0 0 0 0 0 0
0 0 0 0 0 0 0 0 0 0 0 0 0 0 0 0 0 0 0 0 0 0 0 0 0 0 0 0 0 0 0 0 0 0 0 0 0 0 0 0 0 0 0 0
0 0 0 0 0 0 0 0 0 0 0 0 0 0 0 0 0 0 0 0 0 0 0 0 0 0 0 0 0 0 0 0 0 0 0 0 0 0 0 0 0 0 0 0
0 0 0 0 0 0 0 0 0 0 0 0 0 0 0 0 0 0 0 0 0 0 0 0 0 0 0 0 0 0 0 0 0 0 0 0 0 0 0 0 0 0 0 0
0 0 0 0 0 0 0 0 0 0 0 0 0 0 0 0 0 0 0 0 0 0 0 0 0 0 0 0 0 0 0 0 0 0 0 0 0 0 0 0 0 0 0 0
0 0 0 0 0 0 0 0 0 0 0 0 0 0 0 0 0 0 0 0 0 0 0 0 0 0 0 0 0 0 0 0 0 0 0 0 0 0 0 0 0 0 0 0
0 0 0 0 0 0 0 0 0 0 0 0 0 0 0 0 0 0 0 0 0 0 0 0 0 0 0 0 0 0 0 0 0 0 0 0 0 0 0 0 0 0 0 0
0 0 0 0 0 0 0 0 0 0 0 0 0 0 0 0 0 0 0 0 0 0 0 0 0 0 0 0 0 0 0 0 0 0 0 0 0 0 0 0 0 0 0 0
0 0 0 0 0 0 0 0 0 0 0 0 0 0 0 0 0 0 0 0 0 0 0 0 0 0 0 0 0 0 0 0 0 0 0 0 0 0 0 0 0 0 0 0
0 0 0 0 0 0 0 0 0 0 0 0 0 0 0 0 0 0 0 0 0 0 0 0 0 0 0 0 0 0 0 0 0 0 0 0 0 0 0 0 0 0 0 0
0 0 0 0 0 0 0 0 0 0 0 0 0 0 0 0 0 0 0 0 0 0 0 0 0 0 0 0 0 0 0 0 0 0 0 0 0 0 0 0 0 0 0 0
0 0 0 0 0 0 0 0 0 0 0 0 0 0 0 0 0 0 0 0 0 0 0 0 0 0 0 0 0 0 0 0 0 0 0 0 0 0 0 0 0 0 0 0
0 0 0 0 0 0 0 0 0 0 0 0 0 0 0 0 0 0 0 0 0 0 0 0 0 0 0 0 0 0 0 0 0 0 0 0 0 0 0 0 0 0 0 0
0 0 0 0 0 0 0 0 0 0 0 0 0 0 0 0 0 0 0 0 0 0 0 0 0 0 0 0 0 0 0 0 0 0 0 0 0 0 0 0 0 0 0 0
0 0 0 0 0 0 0 0 0 0 0 0 0 0 0 0 0 0 0 0 0 0 0 0 0 0 0 0 0 0 0 0 0 0 0 0 0 0 0 0 0 0 0 0
0 0 0 0 0 0 0 0 0 0 0 0 0 0 0 0 0 0 0 0 0 0 0 0 0 0 0 0 0 0 0 0 0 0 0 0 0 0 0 0 0 0 0 0
Wind_Speed
5 5 7 7 9 7 4 4 6 4 1 3 7 10 9 6 6 6 5 4 4 4 3 3 3 3 3 3 3 3 4 4 3 2 2 2 2 2 1 1 1 2 1 1
4 8 7 5 4 5 5 6 7 3 0 2 6 11 10 8 8 7 6 5 4 3 3 3 4 3 3 2 3 4 4 4 4 3 2 2 2 2 2 2 2 2 2 2
8 2 2 5 5 6 8 8 6 3 2 4 5 9 8 6 5 4 4 3 3 3 3 3 3 3 3 3 3 3 4 4 4 3 2 2 2 2 1 1 1 2 2 2
6 4 3 4 6 6 7 3 3 2 2 3 3 6 6 6 6 7 6 5 4 3 3 3 3 3 3 3 3 3 3 3 4 4 4 4 3 3 2 2 2 2 2 2
3 2 4 6 5 5 2 2 1 3 3 4 5 6 8 5 6 7 6 5 4 4 3 3 2 2 2 2 2 2 3 3 3 4 4 4 3 2 2 2 3 2 2 2
3 1 2 2 0 2 3 1 2 3 2 7 9 8 7 5 6 5 5 5 4 4 3 2 2 2 2 2 2 2 3 3 3 4 4 4 4 3 3 3 3 2 2 2
4 5 3 2 2 3 3 3 2 3 5 8 5 6 8 3 3 4 5 5 4 4 4 3 2 2 2 2 2 3 3 3 4 4 3 3 3 3 4 3 3 3 2 1
4 5 8 5 5 5 7 5 5 4 4 3 2 8 5 3 3 3 4 4 4 4 3 3 3 3 2 2 2 3 3 3 3 4 4 3 3 2 2 3 3 3 2 2
4 2 2 2 2 3 5 6 2 1 2 3 6 5 3 2 3 3 4 4 4 4 3 3 2 2 2 2 3 3 3 3 3 3 3 3 3 2 2 2 2 2 2 2
2 1 2 2 1 4 3 1 3 4 4 5 6 6 5 6 6 6 5 5 4 3 3 3 2 2 2 2 2 2 3 3 3 3 3 3 3 3 2 2 2 2 2 2
1 2 1 2 7 7 5 4 5 4 4 4 4 5 1 5 7 6 6 5 4 3 3 3 2 2 2 2 2 2 2 2 3 3 3 3 3 3 2 2 2 2 2 2
2 2 3 4 1 2 3 5 6 5 5 5 4 6 1 2 4 4 3 3 3 3 3 3 2 2 2 2 2 2 2 2 2 3 3 3 3 3 3 2 2 2 2 2
3 3 1 1 1 1 3 4 4 3 2 4 5 7 0 2 2 2 3 2 2 3 3 2 2 2 2 2 2 2 2 2 2 3 3 3 3 3 3 2 2 2 2 2
2 3 5 6 2 3 5 6 6 6 5 6 10 9 5 3 2 2 3 3 3 3 2 2 1 1 1 2 2 2 1 2 3 3 3 3 3 3 3 2 2 2 2 2
2 4 4 6 6 4 6 8 10 12 11 9 9 10 9 5 4 3 2 3 3 3 2 2 2 1 1 1 1 1 2 2 3 3 3 3 2 2 2 2 2 2 2 2
3 3 1 5 5 5 8 10 12 14 14 15 14 14 9 5 2 2 2 4 4 4 4 3 2 2 2 2 2 2 2 2 2 3 3 3 3 2 2 2 2 2 2 2
4 4 3 4 2 3 10 12 14 10 9 9 15 14 6 5 5 5 3 3 4 4 3 3 3 3 3 3 2 3 2 2 2 3 3 3 3 3 2 2 2 2 2 2
6 5 3 2 1 9 8 2 7 9 10 9 9 7 5 5 4 3 3 2 2 2 2 3 2 2 2 2 2 2 2 2 3 2 2 2 2 2 2 2 2 2 1 2
5 6 4 4 5 10 6 3 3 5 7 6 8 6 4 2 2 3 0 1 2 2 1 1 1 2 1 1 2 2 2 2 2 2 1 1 2 2 2 3 3 2 2 2
4 4 4 5 5 8 4 0 0 1 6 3 3 4 3 1 2 4 0 2 1 1 1 0 1 1 1 0 1 2 2 2 2 2 2 2 2 2 3 3 2 2 2 2
5 5 8 8 7 9 4 1 2 4 5 2 1 2 1 2 3 1 1 2 2 2 1 1 1 1 0 1 1 2 2 2 2 1 1 2 2 2 2 2 1 1 1 2
10 8 9 7 8 11 2 4 5 5 1 2 2 1 0 1 1 1 1 1 1 2 2 1 1 0 1 1 1 1 2 1 0 1 1 1 2 2 2 2 2 2 2 2
8 8 6 9 9 3 5 5 3 0 1 1 2 2 0 1 1 1 1 0 1 1 1 1 1 1 1 0 1 1 1 1 0 1 1 1 1 2 2 2 2 2 2 2
5 3 4 5 6 4 3 3 2 2 2 2 1 1 1 2 2 2 1 1 1 1 1 1 1 1 1 1 1 1 1 1 0 1 1 1 1 1 1 1 2 2 2 3
5 5 4 6 5 4 5 6 5 3 2 2 2 2 2 2 3 2 2 2 1 1 1 0 1 1 2 2 1 1 1 1 1 2 2 1 1 1 1 1 2 2 3 3
5 6 7 7 5 5 4 2 3 3 3 3 3 3 2 3 4 3 3 2 1 1 1 1 1 2 2 2 2 1 1 0 1 2 1 1 1 1 1 1 1 3 3 4
Wind_Direction
189 213 215 216 221 248 285 277 273 277 243 251 250 257 256 250 237 231 226 222 208 197 180 154 145 136 132 140 154 156 152 159 155 157 163 159 165 151 131 123 135 140 145 138
198 228 235 245 243 243 244 257 267 278 162 269 272 271 264 242 233 226 222 217 211 190 163 150 142 137 148 163 171 166 166 167 171 174 173 151 143 139 138 137 142 145 142 140
220 207 220 224 229 230 233 238 250 273 322 258 272 278 243 222 212 215 214 204 198 188 181 165 158 158 168 181 183 178 171 169 172 164 146 122 109 108 129 153 159 151 142 134
241 234 220 225 231 224 245 239 229 252 277 267 226 282 251 214 203 206 208 204 202 191 184 172 164 167 175 185 179 174 162 165 165 163 164 161 164 172 178 163 158 154 144 132
230 182 206 223 231 214 225 63 211 239 249 273 234 247 266 200 214 211 197 190 186 179 175 171 173 173 174 172 169 171 158 161 161 170 174 174 176 171 150 143 145 144 140 137
259 276 254 244 243 191 130 129 219 233 234 251 221 215 260 211 208 189 176 173 175 173 167 165 164 161 171 158 157 164 168 168 163 167 168 173 169 159 157 158 166 159 152 143
219 212 204 194 165 171 189 172 195 213 217 241 195 213 246 204 175 166 164 165 166 162 163 168 174 185 180 169 172 176 175 176 167 166 167 172 169 161 168 172 172 163 164 160
213 222 187 195 202 186 204 208 199 216 230 250 207 230 242 151 117 118 141 157 162 158 159 168 178 192 197 184 178 183 181 178 167 168 169 167 168 166 170 169 168 167 171 175
217 221 122 182 284 218 191 218 243 260 282 275 240 236 254 173 165 167 171 173 185 173 169 173 171 180 183 184 184 188 184 177 172 171 163 164 169 163 160 152 154 158 158 159
284 238 179 150 265 259 258 224 160 195 216 246 249 228 228 194 202 194 188 189 192 181 178 177 175 179 181 180 180 182 176 177 167 165 170 166 168 170 160 148 158 159 155 151
232 194 178 189 208 201 190 207 213 216 231 230 259 250 260 185 183 183 188 189 183 178 178 177 176 167 154 143 146 163 169 165 161 160 161 161 164 164 157 155 160 157 147 152
198 192 225 222 209 327 228 214 197 205 229 226 257 269 336 104 147 163 173 174 169 174 168 160 159 154 151 152 154 164 168 158 155 152 156 159 161 160 158 158 160 147 145 157
166 170 195 269 256 234 245 234 219 232 257 226 227 256 57 77 108 155 167 171 166 166 161 157 156 165 169 168 166 169 171 161 151 147 153 157 162 161 164 156 153 146 153 160
168 200 210 221 235 185 221 227 215 207 222 240 235 253 266 260 250 207 179 178 179 169 166 159 163 172 175 170 170 167 166 157 151 150 154 163 166 165 166 154 156 162 166 175
175 218 234 265 283 272 247 232 217 221 226 234 254 260 264 252 244 239 197 179 179 181 187 193 199 201 188 171 173 170 166 156 152 154 160 169 159 150 149 154 167 171 176 187
186 216 232 269 265 264 264 248 234 235 239 245 260 269 268 274 260 248 222 199 200 204 203 205 206 201 197 190 193 191 184 170 158 162 167 160 151 152 158 165 178 180 180 182
181 178 196 253 282 310 261 230 220 223 225 223 240 249 256 264 248 232 217 216 219 217 208 204 210 211 211 205 203 210 201 179 170 171 162 156 158 163 167 172 180 195 201 198
178 178 200 229 197 242 243 207 204 217 236 228 240 256 249 247 259 241 203 199 237 244 230 215 211 216 214 200 200 209 189 177 176 174 164 154 160 171 173 175 189 208 217 218
197 180 193 198 232 266 271 251 206 218 258 241 241 257 264 277 324 275 217 185 226 241 250 244 218 207 194 191 191 180 171 162 160 163 166 167 173 185 187 195 206 216 223 236
210 198 199 209 224 239 246 211 34 131 266 265 239 253 256 168 245 258 50 71 48 45 73 48 47 87 123 169 153 167 181 176 192 196 200 200 198 201 204 211 220 233 231 236
176 197 211 218 235 257 256 223 127 184 254 323 262 255 242 207 241 284 58 52 59 54 49 55 85 102 102 99 142 185 194 222 232 204 194 204 206 212 214 218 223 224 235 237
179 183 197 198 224 245 187 150 189 223 309 333 334 329 300 291 346 24 62 50 56 53 39 45 55 36 48 96 159 208 232 265 262 178 205 222 221 218 212 203 217 216 213 227
201 195 191 199 216 236 166 190 209 198 266 305 311 317 320 297 289 297 298 315 346 26 16 29 38 351 11 56 169 232 288 334 283 200 225 233 233 232 215 203 208 212 212 224
227 226 221 240 247 243 235 250 257 249 251 259 258 263 248 250 251 255 250 251 273 322 2 16 22 331 321 340 342 318 333 348 259 225 236 230 220 235 219 211 210 214 220 227
204 189 216 246 258 269 246 236 241 250 259 272 272 253 235 232 251 245 241 235 241 262 287 269 240 265 289 315 321 334 343 7 269 250 246 243 231 224 223 233 232 237 241 236
200 195 202 229 220 222 239 232 220 219 232 233 242 266 258 229 238 241 240 237 235 249 263 261 268 273 289 306 306 321 339 262 244 255 254 253 246 236 228 235 279 277 271 274